Skip Page Navigation
NASA JPL Caltech
NASA Logo - Jet Propulsion Laboratory + View the NASA Portal
+ Near-Earth Object (NEO) Program
Search JPL
JPL Home Earth Solar System Stars & Galaxies Technology
JPL Solar System Dynamics
BODIES ORBITS EPHEMERIDES TOOLS PHYSICAL DATA DISCOVERY FAQ SITE MAP
JPL Small-Body Database Browser
Search: [ help ]  
13474 V'yus (1973 QO1)
Classification: Main-belt Asteroid          SPK-ID: 2013474
Ephemeris | Orbit Diagram | Orbital Elements | Physical Parameters | Discovery Circumstances ]

[ show orbit diagram ]
Orbital Elements at Epoch 2457000.5 (2014-Dec-09.0) TDB
Reference: JPL 11 (heliocentric ecliptic J2000)
 Element Value Uncertainty (1-sigma)   Units 
e .292163891167755 6.9429e-08  
a 2.620482537851572 1.8885e-08 AU
q 1.854872162855702 1.8622e-07 AU
i 7.818100434935431 7.892e-06 deg
node 317.3511464678939 4.6324e-05 deg
peri 36.34109205515706 4.7415e-05 deg
M 255.221150774751 1.3478e-05 deg
tp 2457451.463565446809
(2016-Mar-03.96356545)
6.1284e-05 JED
period 1549.424189722155
4.24
1.6749e-05
4.586e-08
d
yr
n .2323443782458023 2.5116e-09 deg/d
Q 3.386092912847441 2.4402e-08 AU
  Orbit Determination Parameters
   # obs. used (total)      819  
   data-arc span      21038 days (57.60 yr)  
   first obs. used      1956-09-27  
   last obs. used      2014-05-04  
   planetary ephem.      DE431  
   SB-pert. ephem.      SB431-BIG16  
   condition code      0  
   fit RMS      .50157  
   data source      ORB  
   producer      Otto Matic  
   solution date      2014-Oct-09 14:25:18  

Additional Information
 Earth MOID = .856098 AU 
 T_jup = 3.330 
[ show covariance matrix ]

Ephemeris | Orbit Diagram | Orbital Elements | Physical Parameters | Discovery Circumstances ]

Physical Parameter Table
Parameter Symbol Value Units Sigma Reference Notes
absolute magnitude H 13.7 mag n/a MPO263470  
rotation period rot_per 6.587 h n/a Asteroid Lightcurve DataBase (Rev. 2014-Mar-01) Published Reference List:
[Clark, M. (2008) Minor Planet Bul. 35, 152-154.]

13474 V'yus           Discovered 1973 Aug. 29 by T. M. Smirnova at the Crimean Astrophysical Observatory.
Yurij Sergeevich Vasil'ev (b. 1929), rector of St. Petersburg State Technical University, is a prominent expert in the field of hydropower engineering. He made a significant contribution to the mastering and use of water-power resources, as well as to the development of higher education in Russia.
NOTE: some special characters may not display properly (any characters within {} are an attempt to place the proper accent above a character)
Reference: 20020427/MPCPages.arcLast Updated: 2003-10-02

Alternate Designations
 1973 QO1 = 1956 SA = 1990 RT4 
Ephemeris | Orbit Diagram | Orbital Elements | Physical Parameters | Discovery Circumstances ]
ABOUT SSD CREDITS/AWARDS PRIVACY/COPYRIGHT GLOSSARY LINKS
FirstGov 2014-Oct-22 08:00 UT
(server date/time)  
NASA Home Page
Site Manager:   Donald K. Yeomans
Webmaster  Alan B. Chamberlin